215P/NEAT (2010)

Japanese version
Home page
Updated on September 25, 2011

---------------------------------------------------------------------

* Profile

Designation 215P/2009 B5
Recovery Date January 22, 2009
Magnitude 20.3 mag
Recoverer G. Hug (Scranton, KS, U.S.A.)

* Orbital Elements

The following orbital elements are taken from MPC 75726:

Epoch 2010 June 13.0 TT = JDT 2455360.5
T 2010 June 8.0388 TT                                   MPC
q   3.213378             (2000.0)            P               Q
n   0.1221768      Peri.  222.4527      +0.4516218      +0.8660984
a   4.022322       Node    75.4409      -0.7475860      +0.4984224
e   0.201114       Incl.   12.7900      -0.4869835      +0.0380614
P   8.07
From 149 observations 1994-2010, mean residual 0".6.

* Finding Charts

* Magnitudes Graph

        m1 = 4.5 + 5 log d + 21.0 log r(t - 180)

---------------------------------------------------------------------

The orbital elements are published at the MPC Ephemerides and Orbital Elements.
The charts are made with StellaNavigator Ver.8 (AstroArts).
The magnitudes graphs are made with Comet for Windows.

---------------------------------------------------------------------

Copyright(C) Seiichi Yoshida (comet@aerith.net). All rights reserved.